Flag for Greenland Weather past 2 weeks in Danmarkshavn, Greenland

26 °F


Feels Like: 16 °F
Forecast: 24 / 30 °F
Wind: 9 mph from Northwest

Location: Danmarkshavn

Current Time: Oct 8, 2015 at 7:14:34 PM

Latest Report: Oct 8, 2015 at 6:00 PM

Visibility: 31 mi

Pressure: 29.91 "Hg

Humidity: 91%

Dew point: 23 °F

Location of DanmarkshavnLocation

Historic Weather in Danmarkshavn — Graph


Danmarkshavn temperature yesterday

Maximum temperature yesterday: 26 °F (at 2:00 PM)
Minimum temperature yesterday: 21 °F (at 9:00 AM)
Average temperature yesterday: 23 °F

Past Weeks' High & Low Weather Summary

High31 °F (Sep 27, 9:00 PM)96% (Sep 28, 12:00 AM)30.41 "Hg (Sep 28, 12:00 AM)
Low12 °F (Sep 27, 5:00 AM)42% (Sep 25, 4:00 PM)29.12 "Hg (Sep 28, 6:00 PM)
Average21 °F71%29.86 "Hg
* Reported Sep 23 5:00 PM — Oct 8 5:00 PM, Danmarkshavn, Weather by CustomWeather, © 2015

Note: Actual official high and low records may vary slightly from our data, if they occured in-between our weather recording intervals... More about our weather records


Danmarkshavn weather history for previous 24 hours

Time TempWeatherWind HumidityBarometerVisibility
5:00 PM
Thu, Oct 8
26 °FOvercast.10 mph85%29.89 "Hg31 mi
4:00 PM26 °FOvercast.9 mph89%29.90 "Hg31 mi
3:00 PM25 °FOvercast.5 mph89%29.90 "Hg31 mi
2:00 PM25 °FOvercast.3 mph88%29.90 "Hg31 mi
1:00 PM25 °FOvercast.5 mph89%29.90 "Hg31 mi
12:00 PM24 °FScattered clouds.6 mph91%29.90 "Hg31 mi
11:00 AM25 °FOvercast.2 mph92%29.90 "Hg28 mi
10:00 AM25 °FLow clouds.6 mph93%29.90 "Hg31 mi
9:00 AM25 °FSnow flurries. Low clouds.8 mph94%29.90 "Hg15 mi
8:00 AM25 °FSnow flurries. Low clouds.9 mph96%29.89 "Hg5 mi
7:00 AM25 °FLight snow. Low clouds.9 mph96%29.89 "Hg3 mi
6:00 AM25 °FSnow flurries. Low clouds.9 mph96%29.89 "Hg3 mi
5:00 AM25 °FLight snow. Ice fog.9 mph96%29.88 "Hg2 mi
4:00 AM26 °FSnow flurries. Low clouds.5 mph93%29.89 "Hg3 mi
3:00 AM26 °FLight snow. Low clouds.1 mph94%29.91 "Hg3 mi
2:00 AM25 °FLight snow. Low clouds.1 mph96%29.92 "Hg2 mi
1:00 AM25 °FLight snow. Low clouds.1 mph96%29.94 "Hg2 mi
12:00 AM24 °FLight snow. Low clouds.3 mph93%29.95 "Hg3 mi
11:00 PM
Wed, Oct 7
25 °FLight snow. Low clouds.3 mph93%29.97 "Hg4 mi
10:00 PM25 °FLight snow. Low clouds.5 mph91%29.98 "Hg4 mi
8:00 PM24 °FLight snow. Overcast.10 mph88%29.98 "Hg6 mi
7:00 PM24 °FLight snow. Overcast.12 mph89%29.99 "Hg9 mi
Weather by CustomWeather, © 2015

See weather overviewHow to use our weather pages